This demonstration page uses our WeatherBlox Daily Observations layout. Learn more.

Left ArrowRight Arrow

Hourly Observations for June 11, 2017

Temp ( °F °C ) Dew Point ( °F °C ) Humidity (%) Winds ( mph kmh ) Pressure ( in mb ) Visibility ( mi km ) Precip ( " mm )
12:56 am 00:56 Clear 80 26.9 69 20.5 68 68 SSE 20 31 29.68 1005 10 16 0.00 0.00
1:56 am 01:56 Clear 79 26 69 20.3 71 71 SSE 14 22 29.68 1005 10 16 0.00 0.00
2:56 am 02:56 Clear 77 25.2 68 20 73 73 SSE 14 22 29.67 1005 10 16 0.00 0.00
3:56 am 03:56 Clear 76 24.6 67 19.4 73 73 SSE 14 22 29.66 1004 10 16 0.00 0.00
4:56 am 04:56 Clear 75 23.9 66 19 74 74 SSE 17 28 29.66 1004 10 16 0.00 0.00
5:56 am 05:56 Sunny 74 23.5 65 18.6 74 74 SSE 20 31 29.65 1004 10 16 0.00 0.00
6:56 am 06:56 Sunny 75 23.7 65 18.5 73 73 SSE 18 30 29.67 1005 10 16 0.00 0.00
7:56 am 07:56 Mostly Sunny 76 24.7 66 18.8 70 70 SSE 16 26 29.69 1005 10 16 0.00 0.00
8:56 am 08:56 Sunny 79 25.9 66 19 66 66 SSE 23 37 29.68 1005 10 16 0.00 0.00
9:56 am 09:56 Sunny 82 27.6 67 19.4 61 61 SSE 23 37 29.68 1005 10 16 0.00 0.00
10:56 am 10:56 Sunny 84 29 67 19.3 56 56 SSE 24 39 29.66 1004 10 16 0.00 0.00
11:56 am 11:56 Mostly Sunny 87 30.6 68 19.9 53 53 S 24 39 29.68 1005 10 16 0.00 0.00
12:56 pm 12:56 Sunny 90 32.3 68 20.2 49 49 S 16 26 29.66 1004 10 16 0.00 0.00
1:56 pm 13:56 Sunny 92 33.5 68 20.2 46 46 SSE 25 41 29.64 1004 10 16 0.00 0.00
2:56 pm 14:56 Sunny 94 34.3 68 19.9 43 43 S 20 31 29.64 1004 10 16 0.00 0.00
3:56 pm 15:56 Sunny 94 34.6 68 19.8 42 42 S 21 33 29.65 1004 10 16 0.00 0.00
4:56 pm 16:56 Sunny 95 35.2 68 19.9 41 41 SSW 16 26 29.65 1004 10 16 0.00 0.00
5:56 pm 17:56 Partly Cloudy 92 33.5 67 19.5 44 44 S 17 28 29.66 1004 10 16 0.00 0.00
6:56 pm 18:56 Partly Cloudy 91 32.9 67 19.7 46 46 SSE 17 28 29.66 1004 10 16 0.00 0.00
7:56 pm 19:56 Mostly Sunny 89 31.9 68 20.1 50 50 SSE 15 24 29.67 1005 10 16 0.00 0.00
8:56 pm 20:56 Sunny 87 30.5 68 20.1 54 54 SSE 10 17 29.68 1005 10 16 0.00 0.00
9:56 pm 21:56 Clear 86 29.9 68 19.8 55 55 SSE 16 26 29.71 1006 10 16 0.00 0.00
10:56 pm 22:56 Clear 85 29.3 68 19.9 57 57 S 17 28 29.73 1007 10 16 0.00 0.00
11:56 pm 23:56 Clear 82 28 69 20.3 63 63 S 16 26 29.75 1007 10 16 0.00 0.00

Powered by AerisWeather